VOZ853 YMML-YSSY

Flight info

Callsign VOZ853
Flight time 1h 4m
Altitude 35000
Route ML H129 DOSEL Y59 RIVET
Aircraft B738/M-SDE2E3FGHIRWXY/LB1

Departure

Time 2026-05-01 12:02
Airport Melbourne Airport (YMML)

Arrival

Time 2026-05-01 13:07
Airport Sydney Kingsford Smith International Airport (YSSY)
Time Latitude Longitude Altitude Speed Heading
2026-05-01 11:33 -37.67062 144.84674 398 ft 0 kts 171°
2026-05-01 11:45 -37.67061 144.84674 398 ft 2 kts 171°
2026-05-01 11:45 -37.67047 144.84671 399 ft 2 kts 172°
2026-05-01 11:45 -37.67033 144.84668 399 ft 2 kts 172°
2026-05-01 11:45 -37.67019 144.84665 399 ft 2 kts 171°
2026-05-01 11:46 -37.67002 144.84670 400 ft 3 kts 238°
2026-05-01 11:46 -37.66999 144.84677 400 ft 1 kts 255°
2026-05-01 11:46 -37.67005 144.84651 399 ft 1 kts 218°
2026-05-01 11:46 -37.67005 144.84637 398 ft 0 kts 271°
2026-05-01 11:47 -37.67005 144.84633 398 ft 0 kts 271°
2026-05-01 11:51 -37.67006 144.84616 397 ft 6 kts 263°
2026-05-01 11:51 -37.67017 144.84523 393 ft 14 kts 266°
2026-05-01 11:51 -37.67048 144.84401 388 ft 16 kts 257°
2026-05-01 11:52 -37.67065 144.84256 385 ft 12 kts 261°
2026-05-01 11:52 -37.67071 144.84210 385 ft 0 kts 262°
2026-05-01 11:53 -37.67073 144.84187 385 ft 4 kts 262°
2026-05-01 11:53 -37.67082 144.84117 385 ft 10 kts 261°
2026-05-01 11:53 -37.67130 144.84053 382 ft 12 kts 187°
2026-05-01 11:53 -37.67219 144.84065 379 ft 14 kts 171°
2026-05-01 11:54 -37.67323 144.84084 377 ft 15 kts 170°
2026-05-01 11:54 -37.67430 144.84103 375 ft 16 kts 171°
2026-05-01 11:54 -37.67537 144.84125 372 ft 16 kts 171°
2026-05-01 11:54 -37.67645 144.84146 370 ft 11 kts 171°
2026-05-01 11:55 -37.67704 144.84157 368 ft 6 kts 171°
2026-05-01 11:55 -37.67753 144.84166 367 ft 7 kts 171°
2026-05-01 11:55 -37.67791 144.84174 365 ft 3 kts 171°
2026-05-01 11:55 -37.67792 144.84174 365 ft 0 kts 171°
2026-05-01 11:58 -37.67839 144.84174 363 ft 8 kts 204°
2026-05-01 11:59 -37.67872 144.84100 361 ft 10 kts 264°
2026-05-01 11:59 -37.67863 144.84004 360 ft 10 kts 292°
2026-05-01 11:59 -37.67809 144.83960 361 ft 8 kts 351°
2026-05-01 12:00 -37.67797 144.83957 361 ft 0 kts 352°
2026-05-01 12:01 -37.67789 144.83955 361 ft 6 kts 352°
2026-05-01 12:01 -37.67504 144.83902 371 ft 71 kts 351°
2026-05-01 12:01 -37.66806 144.83771 393 ft 124 kts 351°
2026-05-01 12:02 -37.65772 144.83578 429 ft 166 kts 352°
2026-05-01 12:02 -37.64558 144.83347 1031 ft 162 kts 352°
2026-05-01 12:02 -37.63388 144.83124 1751 ft 159 kts 354°
2026-05-01 12:02 -37.62260 144.82912 2266 ft 163 kts 354°
2026-05-01 12:03 -37.61054 144.82681 2627 ft 175 kts 353°
2026-05-01 12:03 -37.59743 144.82434 2932 ft 193 kts 355°
2026-05-01 12:03 -37.58334 144.82530 3257 ft 209 kts 17°
2026-05-01 12:03 -37.56952 144.83395 3655 ft 225 kts 28°
2026-05-01 12:04 -37.55444 144.84477 4115 ft 238 kts 26°
2026-05-01 12:04 -37.53913 144.85461 4690 ft 244 kts 24°
2026-05-01 12:04 -37.52364 144.86400 5286 ft 248 kts 23°
2026-05-01 12:04 -37.50750 144.87369 5940 ft 252 kts 23°
2026-05-01 12:05 -37.49135 144.88342 6561 ft 256 kts 23°
2026-05-01 12:05 -37.45700 144.90422 7949 ft 262 kts 24°
2026-05-01 12:05 -37.43995 144.91547 8651 ft 266 kts 30°
2026-05-01 12:06 -37.42572 144.93195 9293 ft 274 kts 49°
2026-05-01 12:06 -37.41427 144.95281 10010 ft 278 kts 53°
2026-05-01 12:06 -37.40286 144.97504 10555 ft 289 kts 53°
2026-05-01 12:06 -37.39108 144.99704 10939 ft 303 kts 52°
2026-05-01 12:07 -37.37839 145.01988 11298 ft 318 kts 51°
2026-05-01 12:07 -37.36488 145.04375 11658 ft 333 kts 51°
2026-05-01 12:07 -37.35084 145.06842 12026 ft 347 kts 51°
2026-05-01 12:07 -37.33630 145.09399 12598 ft 354 kts 51°
2026-05-01 12:08 -37.32062 145.12163 13306 ft 359 kts 52°
2026-05-01 12:08 -37.30488 145.14941 14005 ft 363 kts 52°
2026-05-01 12:08 -37.28900 145.17741 14692 ft 369 kts 52°
2026-05-01 12:08 -37.27375 145.20428 15340 ft 374 kts 51°
2026-05-01 12:09 -37.25795 145.23209 16022 ft 378 kts 51°
2026-05-01 12:09 -37.24119 145.26152 16710 ft 384 kts 51°
2026-05-01 12:09 -37.22491 145.29011 17436 ft 386 kts 51°
2026-05-01 12:09 -37.20890 145.31821 18045 ft 391 kts 51°
2026-05-01 12:10 -37.19235 145.34723 18706 ft 394 kts 51°
2026-05-01 12:10 -37.15713 145.40886 20031 ft 401 kts 51°
2026-05-01 12:10 -37.13906 145.44040 20656 ft 406 kts 51°
2026-05-01 12:11 -37.10452 145.50055 21788 ft 413 kts 51°
2026-05-01 12:11 -37.08711 145.53085 22381 ft 415 kts 51°
2026-05-01 12:11 -37.06949 145.56149 22930 ft 418 kts 51°
2026-05-01 12:12 -37.05212 145.59169 23481 ft 421 kts 51°
2026-05-01 12:12 -37.03482 145.62172 23914 ft 426 kts 51°
2026-05-01 12:12 -37.01701 145.65260 24398 ft 429 kts 51°
2026-05-01 12:12 -36.99925 145.68341 24855 ft 433 kts 51°
2026-05-01 12:13 -36.98116 145.71471 25329 ft 436 kts 51°
2026-05-01 12:13 -36.96318 145.74580 25781 ft 440 kts 51°
2026-05-01 12:13 -36.94505 145.77713 26222 ft 443 kts 51°
2026-05-01 12:13 -36.92550 145.81088 26664 ft 447 kts 51°
2026-05-01 12:14 -36.90693 145.84293 27114 ft 449 kts 51°
2026-05-01 12:14 -36.88799 145.87558 27579 ft 452 kts 51°
2026-05-01 12:14 -36.86934 145.90770 28011 ft 454 kts 51°
2026-05-01 12:14 -36.85007 145.94086 28431 ft 457 kts 51°
2026-05-01 12:15 -36.83059 145.97433 28830 ft 460 kts 51°
2026-05-01 12:15 -36.81136 146.00735 29259 ft 462 kts 51°
2026-05-01 12:15 -36.79231 146.04005 29900 ft 459 kts 51°
2026-05-01 12:15 -36.77317 146.07289 30396 ft 459 kts 51°
2026-05-01 12:16 -36.75222 146.10878 30870 ft 460 kts 51°
2026-05-01 12:16 -36.73145 146.14430 31347 ft 460 kts 51°
2026-05-01 12:16 -36.71139 146.17857 31817 ft 460 kts 51°
2026-05-01 12:17 -36.69157 146.21242 32286 ft 459 kts 51°
2026-05-01 12:17 -36.67171 146.24628 32737 ft 459 kts 51°
2026-05-01 12:17 -36.65152 146.28065 33142 ft 459 kts 51°
2026-05-01 12:17 -36.63157 146.31461 33551 ft 459 kts 51°
2026-05-01 12:18 -36.61120 146.34923 33918 ft 459 kts 51°
2026-05-01 12:18 -36.59115 146.38329 34220 ft 460 kts 51°
2026-05-01 12:18 -36.57045 146.41843 34526 ft 460 kts 51°
2026-05-01 12:18 -36.55062 146.45204 34823 ft 460 kts 51°
2026-05-01 12:19 -36.52994 146.48703 35100 ft 460 kts 51°
2026-05-01 12:19 -36.50988 146.52095 35269 ft 462 kts 51°
2026-05-01 12:19 -36.46862 146.59062 35281 ft 460 kts 51°
2026-05-01 12:20 -36.42804 146.65901 35299 ft 461 kts 50°
2026-05-01 12:20 -36.38594 146.72980 35296 ft 460 kts 50°
2026-05-01 12:21 -36.34439 146.79954 35297 ft 460 kts 50°
2026-05-01 12:21 -36.30184 146.87080 35301 ft 462 kts 50°
2026-05-01 12:22 -36.25976 146.94110 35293 ft 461 kts 50°
2026-05-01 12:22 -36.21822 147.01039 35289 ft 463 kts 50°
2026-05-01 12:23 -36.17591 147.08081 35294 ft 464 kts 50°
2026-05-01 12:23 -36.13343 147.15138 35288 ft 462 kts 50°
2026-05-01 12:24 -36.09409 147.21660 35297 ft 465 kts 50°
2026-05-01 12:24 -36.05016 147.28926 35300 ft 464 kts 50°
2026-05-01 12:25 -35.98626 147.39471 35305 ft 465 kts 50°
2026-05-01 12:26 -35.94441 147.46358 35302 ft 464 kts 50°
2026-05-01 12:26 -35.88370 147.56329 35305 ft 464 kts 50°
2026-05-01 12:27 -35.82230 147.66377 35313 ft 464 kts 50°
2026-05-01 12:28 -35.75622 147.77162 35318 ft 466 kts 50°
2026-05-01 12:29 -35.69228 147.87573 35315 ft 466 kts 50°
2026-05-01 12:29 -35.62577 147.98361 35321 ft 465 kts 50°
2026-05-01 12:30 -35.55834 148.09262 35330 ft 466 kts 50°
2026-05-01 12:31 -35.51522 148.16217 35325 ft 466 kts 50°
2026-05-01 12:31 -35.47090 148.23354 35328 ft 467 kts 50°
2026-05-01 12:32 -35.42865 148.30142 35335 ft 468 kts 50°
2026-05-01 12:32 -35.36306 148.40649 35345 ft 468 kts 50°
2026-05-01 12:33 -35.32102 148.47366 35352 ft 468 kts 50°
2026-05-01 12:33 -35.27853 148.54146 35355 ft 468 kts 50°
2026-05-01 12:34 -35.23347 148.61322 35353 ft 469 kts 50°
2026-05-01 12:34 -35.18955 148.68301 35348 ft 468 kts 50°
2026-05-01 12:35 -35.14415 148.75499 35348 ft 469 kts 50°
2026-05-01 12:35 -35.09828 148.82756 35346 ft 470 kts 50°
2026-05-01 12:36 -35.05559 148.89499 35342 ft 470 kts 50°
2026-05-01 12:36 -35.01308 148.96202 35343 ft 469 kts 50°
2026-05-01 12:37 -34.97006 149.02971 35345 ft 469 kts 50°
2026-05-01 12:37 -34.92732 149.09682 35344 ft 470 kts 50°
2026-05-01 12:38 -34.88470 149.16359 35342 ft 470 kts 50°
2026-05-01 12:38 -34.84196 149.23045 35341 ft 471 kts 50°
2026-05-01 12:39 -34.79791 149.29923 35342 ft 471 kts 50°
2026-05-01 12:39 -34.75413 149.36780 35345 ft 470 kts 52°
2026-05-01 12:40 -34.71551 149.44182 35121 ft 461 kts 59°
2026-05-01 12:40 -34.69824 149.48041 34423 ft 464 kts 61°
2026-05-01 12:40 -34.68167 149.51881 33347 ft 476 kts 62°
2026-05-01 12:41 -34.66503 149.55788 32628 ft 474 kts 62°
2026-05-01 12:41 -34.64823 149.59732 32067 ft 469 kts 62°
2026-05-01 12:41 -34.63231 149.63454 31380 ft 468 kts 61°
2026-05-01 12:41 -34.61592 149.67256 30739 ft 465 kts 60°
2026-05-01 12:42 -34.59904 149.71152 30256 ft 457 kts 60°
2026-05-01 12:42 -34.58308 149.74823 30027 ft 445 kts 60°
2026-05-01 12:42 -34.56714 149.78470 29379 ft 444 kts 60°
2026-05-01 12:42 -34.55039 149.82285 28640 ft 444 kts 60°
2026-05-01 12:43 -34.53395 149.86020 27914 ft 442 kts 60°
2026-05-01 12:43 -34.51822 149.89584 27197 ft 441 kts 60°
2026-05-01 12:43 -34.50168 149.93330 26464 ft 439 kts 60°
2026-05-01 12:43 -34.48518 149.97064 25730 ft 437 kts 60°
2026-05-01 12:44 -34.46891 150.00742 25004 ft 435 kts 60°
2026-05-01 12:44 -34.45289 150.04358 24249 ft 427 kts 60°
2026-05-01 12:44 -34.42247 150.11221 22604 ft 410 kts 59°
2026-05-01 12:45 -34.39323 150.17810 21316 ft 386 kts 60°
2026-05-01 12:45 -34.37905 150.20998 20674 ft 377 kts 60°
2026-05-01 12:45 -34.36523 150.24095 20080 ft 376 kts 60°
2026-05-01 12:46 -34.35234 150.26987 19524 ft 374 kts 60°
2026-05-01 12:46 -34.33895 150.29990 18950 ft 371 kts 60°
2026-05-01 12:46 -34.32556 150.32989 18379 ft 367 kts 60°
2026-05-01 12:46 -34.31178 150.36072 17793 ft 364 kts 60°
2026-05-01 12:47 -34.29848 150.39046 17226 ft 361 kts 60°
2026-05-01 12:47 -34.28588 150.41859 16703 ft 357 kts 60°
2026-05-01 12:47 -34.27349 150.44627 16195 ft 353 kts 60°
2026-05-01 12:47 -34.26121 150.47374 15668 ft 350 kts 60°
2026-05-01 12:48 -34.24881 150.50151 15150 ft 346 kts 60°
2026-05-01 12:48 -34.23661 150.52878 14649 ft 342 kts 60°
2026-05-01 12:48 -34.22400 150.55692 14138 ft 338 kts 61°
2026-05-01 12:48 -34.21198 150.58374 13642 ft 334 kts 61°
2026-05-01 12:49 -34.19987 150.61075 13134 ft 330 kts 60°
2026-05-01 12:49 -34.18856 150.63594 12674 ft 327 kts 60°
2026-05-01 12:49 -34.17791 150.65965 12239 ft 323 kts 60°
2026-05-01 12:49 -34.16725 150.68335 11800 ft 320 kts 60°
2026-05-01 12:50 -34.15651 150.70725 11357 ft 317 kts 60°
2026-05-01 12:50 -34.14548 150.73175 10889 ft 314 kts 60°
2026-05-01 12:50 -34.13403 150.75717 10404 ft 311 kts 59°
2026-05-01 12:50 -34.12332 150.78093 9904 ft 310 kts 59°
2026-05-01 12:51 -34.11269 150.80450 9421 ft 309 kts 59°
2026-05-01 12:51 -34.10249 150.82709 8964 ft 307 kts 59°
2026-05-01 12:51 -34.08225 150.87207 8289 ft 296 kts 59°
2026-05-01 12:52 -34.07229 150.89424 7984 ft 288 kts 59°
2026-05-01 12:52 -34.05392 150.93507 7376 ft 261 kts 59°
2026-05-01 12:52 -34.04534 150.95415 7102 ft 250 kts 58°
2026-05-01 12:53 -34.03196 150.99390 6510 ft 238 kts 83°
2026-05-01 12:53 -34.03475 151.01327 6283 ft 237 kts 107°
2026-05-01 12:53 -34.04342 151.03087 6076 ft 236 kts 123°
2026-05-01 12:54 -34.05445 151.04585 5888 ft 238 kts 128°
2026-05-01 12:54 -34.08054 151.07567 5439 ft 239 kts 143°
2026-05-01 12:54 -34.09629 151.08339 5244 ft 244 kts 164°
2026-05-01 12:55 -34.13173 151.09090 4827 ft 243 kts 166°
2026-05-01 12:55 -34.14886 151.09500 4631 ft 239 kts 165°
2026-05-01 12:55 -34.16514 151.09918 4490 ft 230 kts 164°
2026-05-01 12:56 -34.18079 151.10329 4341 ft 228 kts 164°
2026-05-01 12:56 -34.19629 151.10736 4154 ft 228 kts 164°
2026-05-01 12:56 -34.21200 151.11127 3896 ft 227 kts 165°
2026-05-01 12:56 -34.22655 151.11816 3648 ft 216 kts 134°
2026-05-01 12:57 -34.23359 151.13246 3485 ft 193 kts 92°
2026-05-01 12:57 -34.22295 151.15962 3286 ft 181 kts 48°
2026-05-01 12:57 -34.21346 151.16945 3211 ft 181 kts 34°
2026-05-01 12:58 -34.20281 151.17773 3137 ft 180 kts 33°
2026-05-01 12:58 -34.19226 151.18579 3091 ft 179 kts 33°
2026-05-01 12:58 -34.18164 151.19392 3059 ft 180 kts 33°
2026-05-01 12:59 -34.15893 151.20564 2959 ft 176 kts 13°
2026-05-01 12:59 -34.14679 151.20836 2957 ft 177 kts 13°
2026-05-01 12:59 -34.12229 151.21391 2962 ft 176 kts 15°
2026-05-01 13:00 -34.09902 151.21501 2718 ft 169 kts 355°
2026-05-01 13:00 -34.08762 151.21234 2500 ft 159 kts 353°
2026-05-01 13:01 -34.06693 151.20714 2079 ft 159 kts 353°
2026-05-01 13:01 -34.05589 151.20428 1850 ft 155 kts 353°
2026-05-01 13:01 -34.03475 151.19881 1417 ft 148 kts 352°
2026-05-01 13:02 -34.02432 151.19612 1223 ft 150 kts 352°
2026-05-01 13:07 -33.93734 151.18074 18 ft 8 kts 351°
2026-05-01 13:07 -33.93682 151.18057 19 ft 7 kts 353°
2026-05-01 13:07 -33.93639 151.18054 20 ft 4 kts 359°
2026-05-01 13:08 -33.93613 151.18048 20 ft 3 kts 322°
2026-05-01 13:08 -33.93603 151.18019 20 ft 4 kts 280°
2026-05-01 13:08 -33.93601 151.17999 19 ft 1 kts 278°
2026-05-01 13:08 -33.93600 151.17990 19 ft 0 kts 277°
2026-05-01 13:09 -33.93599 151.17986 19 ft 0 kts 278°